Location: Te Maire Creek
(41.1333°S, 175.9167°E)
Time: 00:52:28
(UTC+00:00)

Cosmos 2360 Rocket - Pass Details

Date: 19 May 2024
Orbit: 832 x 846 km, 71.0° (Epoch: 18 June)

Event Time Altitude Azimuth Distance (km) Brightness Sun altitude
Rises 18:44:56 0° 314° (NW) 3,395 5.1 -7.3°
Reaches altitude 10° 18:47:34 10° 305° (NW) 2,465 4.3 -6.8°
Maximum altitude 18:52:46 37° 238° (WSW) 1,299 2.7 -5.9°
Drops below altitude 10° 18:58:02 10° 171° (S) 2,482 4.5 -5.0°
Sets 19:00:41 0° 163° (SSE) 3,420 5.3 -4.5°
